[[[{"header":{"parameterUnit":"kt","parameterCategory":2,"dx":1,"dy":1,"la1":30.253999710083008,"la2":30.299108505249023,"lo1":-89.0895004272461,"lo2":-89.04439544677734,"nx":28,"ny":28,"refTime":"2022-09-17T21:00:00:Z","depth":0,"parameterNumber":1,"parameterNumberName":"U-component_of_WINDS"},"data":[-11.5487,-11.5631,-11.5587,-11.5734,-11.5718,-11.5811,-11.583,-11.585,-11.5855,-11.5963,-11.6017,-11.5987,-11.5975,-11.6031,-11.6089,-11.6074,-11.6102,-11.619,-11.6158,-11.5806,-11.5754,-11.5704,-11.5665,-11.6197,-11.6197,-11.6528,-11.6531,-11.6534,-11.5245,-11.5231,-11.5293,-11.5323,-11.5377,-11.5267,-11.5282,-11.5335,-11.5421,-11.5427,-11.5476,-11.5568,-11.5634,-11.5589,-11.5646,-11.5716,-11.5666,-11.5735,-11.5728,-11.5728,-11.5351,-11.531,-11.5774,-11.5774,-11.5774,-11.5774,-11.5774,-11.5774,-11.4792,-11.488,-11.4868,-11.4935,-11.4937,-11.4957,-11.5034,-11.4992,-11.5052,-11.5102,-11.5033,-11.513,-11.5127,-11.5168,-11.5171,-11.5247,-11.5162,-11.5221,-11.5236,-11.5253,-11.5279,-11.4814,-11.5254,-11.5252,-11.5251,-11.5249,-11.5248,0,-11.4444,-11.4399,-11.4452,-11.4495,-11.454,-11.4567,-11.4584,-11.463,-11.4514,-11.457,-11.4646,-11.4681,-11.4754,-11.4821,-11.486,-11.4848,-11.4737,-11.4719,-11.476,-11.4795,-11.4824,-11.4812,-11.4201,-11.4705,-11.4701,-11.4697,-11.4694,-11.4693,-11.3984,-11.409,-11.4052,-11.4097,-11.4092,-11.4166,-11.42,-11.4088,-11.413,-11.4134,-11.4218,-11.4282,-11.4327,-11.4458,-11.4404,-11.4458,-11.4403,-11.4602,-11.441,-11.4442,-11.4408,-11.4403,-11.4415,-11.4641,-11.4648,-11.4653,-11.4657,0,-11.3731,-11.3647,-11.3795,-11.3743,-11.3734,-11.3853,-11.3809,-11.3892,-11.3838,-11.3946,-11.3964,-11.388,-11.3956,-11.3869,-11.3937,-11.389,-11.4092,-11.4036,-11.4094,-11.4078,-11.4249,-11.4235,-11.4811,-11.4882,-11.4329,-11.4335,-11.4339,0,-11.3304,-11.3447,-11.3314,-11.3403,-11.356,-11.3439,-11.3599,-11.3566,-11.3555,-11.3638,-11.3494,-11.3575,-11.3448,-11.3519,-11.3448,-11.3596,-11.3608,-11.358,-11.356,-11.3593,-11.3597,-11.3612,-11.3587,-11.3506,-11.3503,-11.35,-11.3498,0,-11.2915,-11.3007,-11.3152,-11.3159,-11.3116,-11.3188,-11.3174,-11.3157,-11.319,-11.3219,-11.3239,-11.3283,-11.3307,-11.3344,-11.3252,-11.3126,-11.343,-11.3236,-11.3402,-11.3405,-11.3471,-11.3468,-11.4003,-11.3495,-11.3494,-11.3493,-11.3492,0,-11.2555,-11.2582,-11.2804,-11.2764,-11.2792,-11.2888,-11.2919,-11.2979,-11.2972,-11.2932,-11.2953,-11.2844,-11.2962,-11.2778,-11.2941,-11.2802,-11.2836,-11.2819,-11.2829,-11.2832,-11.2627,-11.2942,-11.346,-11.3511,-11.2841,-11.2836,-11.2831,0,-11.2134,-11.2331,-11.2225,-11.2438,-11.2516,-11.2345,-11.245,-11.2445,-11.2398,-11.246,-11.2408,-11.2479,-11.2321,-11.233,-11.2423,-11.2373,-11.2553,-11.2346,-11.2441,-11.2446,-11.2449,-11.2924,-11.3022,-11.3356,-11.276,-11.2767,-11.2773,0,-11.1794,-11.1732,-11.1777,-11.1779,-11.1749,-11.1811,-11.1931,-11.1971,-11.2018,-11.2026,-11.2124,-11.222,-11.2105,-11.212,-11.2034,-11.2135,-11.2428,-11.1997,-11.1995,-11.208,-11.2715,-11.2809,-11.2865,-11.2348,-11.2357,-11.2364,-11.2716,0,-11.1274,-11.1357,-11.1473,-11.1478,-11.1511,-11.1636,-11.1532,-11.1582,-11.1494,-11.1438,-11.158,-11.1548,-11.1589,-11.1626,-11.1539,-11.1798,-11.174,-11.1616,-11.1426,-11.1739,-11.1853,-11.1899,-11.1266,-11.126,-11.1255,-11.125,0,0,-11.0892,-11.1007,-11.0881,-11.0988,-11.1008,-11.0823,-11.0966,-11.0964,-11.0964,-11.0983,-11.0877,-11.1006,-11.0983,-11.1165,-11.1254,-11.127,-11.1308,-11.1199,-11.1591,-11.1629,-11.1664,-11.1788,-11.1838,-11.1241,-11.1239,-11.1238,-11.1236,0,-11.0678,-11.0654,-11.0794,-11.0786,-11.0767,-11.0698,-11.0734,-11.0681,-11.0652,-11.0785,-11.063,-11.0702,-11.0804,-11.0802,-11.0815,-11.1176,-11.1055,-11.1197,-11.1427,-11.1542,-11.1587,-11.1627,-11.1758,-11.1807,-11.1223,-11.1224,-11.1224,0,-11.0325,-11.0285,-11.034,-11.037,-11.0355,-11.0437,-11.0214,-11.0309,-11.0369,-11.0158,-11.0293,-11.0261,-11.0247,-11.043,-11.0508,-11.0413,-11.0832,-11.0679,-11.0709,-11.0714,-11.0821,-11.0876,-11.0924,-11.0284,-11.0281,-11.0278,0,0,-11.0155,-11.0228,-11.0145,-11.0315,-11.0317,-11.0215,-11.0246,-11.0159,-11.0147,-11.0144,-11.0097,-11.0094,-11.0152,-11.0193,-11.0242,-11.0457,-11.0446,-11.0567,-11.0611,-11.0648,-11.0674,-11.0791,-11.0845,-11.0268,-11.0267,-11.0267,0,0,-11.0072,-10.9981,-10.9891,-11.0074,-11.007,-10.9999,-11.0108,-10.9997,-11.0028,-11.0001,-10.9858,-10.985,-11.0019,-10.9992,-10.9861,-11.0173,-10.9988,-11.0017,-11.0183,-11.0237,-11.0281,-11.0283,-10.9625,0,0,0,0,0,-10.9795,-10.9992,-10.9912,-10.9926,-10.9961,-11.0044,-11.0048,-10.9932,-10.9805,-10.9895,-10.9839,-10.9704,-10.9893,-10.9773,-10.9791,-10.9937,-11.0129,-11.0154,-11.0177,-11.0441,-11.0499,-11.0548,0,0,0,0,0,0,-10.9799,-10.9817,-10.9906,-10.9846,-10.9852,-11.0036,-10.9794,-10.9768,-10.9792,-10.9764,-10.9719,-10.9702,-10.9607,-10.9756,-10.9774,-10.9915,-10.9619,-11.0139,-11.016,-11.0178,-11.0461,-11.0509,-11.0549,0,0,0,0,0,-10.9802,-10.9816,-10.9902,-10.9842,-10.9848,-10.9742,-10.9785,-10.9762,-10.9778,-10.9689,-10.9667,-10.9689,-10.9614,-10.9621,-10.9766,-10.991,-10.9606,-10.9613,-11.0152,-11.0169,-11.0183,-11.0484,0,0,0,0,0,0,-10.9805,-10.9796,-10.99,-10.9898,-10.9756,-10.9729,-10.972,-10.9757,-10.9698,-10.968,-10.965,-10.9629,-10.9621,-10.9625,-10.9631,-10.9915,-10.9595,-10.9602,-10.9607,-11.0165,-11.0178,-11.0189,0,0,0,0,0,0,-10.9788,-10.9796,-10.9899,-10.9797,-10.9782,-10.9718,-10.9711,-10.9816,-10.97,-10.9662,-10.9643,-10.9642,-10.9612,-10.963,-10.9634,-10.9803,-10.9587,-10.9594,-10.9599,-10.9602,-11.0175,-11.0185,0,0,0,0,0,0,-10.9789,-10.9795,-10.9797,-10.9786,-10.9772,-10.9736,-10.9809,-10.9852,-10.9612,-10.9668,-10.9587,-10.9576,-10.9621,-10.9622,-10.9636,-10.9805,-10.9803,-10.9587,-10.9592,-10.9595,-10.9597,0,0,0,0,0,0,0,-10.979,-10.9772,-10.9915,-10.9776,-10.9763,-10.9875,-10.9875,-10.9874,-10.961,-10.96,-10.959,-10.9581,-10.9548,-10.9555,-10.9563,-10.9807,0,0,-10.9586,-10.959,0,0,0,0,0,0,0,0,-10.9767,-10.9771,-10.9915,-10.9914,-10.9914,-10.9875,-10.9875,-10.9874,-10.9608,-10.96,-10.9592,-10.9585,-10.955,-10.9556,-10.9562,0,0,0,0,0,0,0,0,0,0,0,0,0,0,0,-10.9915,-10.9914,0,-10.9875,-10.9875,-10.9874,-10.9607,-10.96,-10.9594,-10.9588,-10.9552,-10.9557,-10.9562,0,0,0,0,0,0,0,0,0,0,0,0,0,0,0,0,0,0,0,0,0,0,0,0,0,0,0,0,0,0,0,0,0,0,0,0,0,0,0,0,0,0,0,0,0,0,0,0,0,0,0,0,0,0,0,0,0,0,0,0,0,0,0,0,0,0,0,0,0]}],[{"header":{"parameterUnit":"kt","parameterCategory":2,"dx":1,"dy":1,"la1":30.253999710083008,"la2":30.299108505249023,"lo1":-89.0895004272461,"lo2":-89.04439544677734,"nx":28,"ny":28,"refTime":"2022-09-17T21:00:00:Z","depth":0,"parameterNumber":2,"parameterNumberName":"V-component_of_WINDS"},"data":[1.786,1.7864,1.792,1.795,1.8005,1.8035,1.8063,1.8106,1.8154,1.8196,1.823,1.8286,1.8355,1.8408,1.8447,1.8471,1.8481,1.8444,1.8477,1.86,1.8621,1.864,1.8642,1.8446,1.8446,1.8341,1.8339,1.8339,1.7948,1.8003,1.8035,1.8104,1.8133,1.8204,1.8264,1.8283,1.8307,1.8366,1.8402,1.8443,1.8482,1.8566,1.8612,1.8614,1.8649,1.8623,1.8621,1.863,1.8765,1.8767,1.8594,1.8594,1.8594,1.8594,1.8594,1.8594,1.8123,1.8123,1.8197,1.8233,1.8283,1.8329,1.8338,1.8407,1.8439,1.8495,1.8555,1.8583,1.8652,1.8734,1.8775,1.8798,1.8837,1.8824,1.882,1.8815,1.8801,1.8942,1.8809,1.881,1.8811,1.8811,1.8812,0,1.8267,1.8314,1.8348,1.8399,1.8429,1.8473,1.8523,1.8531,1.8648,1.8669,1.8704,1.8733,1.879,1.8828,1.8884,1.8929,1.9001,1.9016,1.9007,1.8975,1.8941,1.8957,1.9171,1.9018,1.902,1.9021,1.9022,1.9023,1.8444,1.8438,1.8543,1.8559,1.8601,1.8626,1.8652,1.8756,1.8779,1.8855,1.885,1.889,1.8927,1.8973,1.905,1.9093,1.9127,1.9062,1.9133,1.9106,1.9123,1.912,1.912,1.9044,1.9041,1.9039,1.9037,0,1.8538,1.863,1.8638,1.8742,1.8768,1.8756,1.8844,1.8848,1.8915,1.8929,1.8938,1.904,1.9072,1.9162,1.9215,1.9261,1.924,1.9275,1.9218,1.9228,1.9177,1.9179,1.9001,1.8982,1.919,1.9188,1.9186,0,1.8723,1.8711,1.8847,1.8847,1.8838,1.8942,1.8929,1.8984,1.9045,1.9058,1.9156,1.9165,1.9279,1.9301,1.9368,1.9368,1.9378,1.9412,1.9428,1.94,1.9395,1.9409,1.9417,1.9471,1.9472,1.9473,1.9473,0,1.8857,1.8917,1.8918,1.8946,1.9054,1.9052,1.9096,1.9165,1.9189,1.9235,1.9252,1.9297,1.9321,1.9354,1.9439,1.9484,1.9442,1.9521,1.9475,1.9473,1.9457,1.9456,1.9281,1.9474,1.9475,1.9475,1.9475,0,1.9019,1.9065,1.9053,1.9146,1.9156,1.9157,1.9209,1.9231,1.9296,1.9338,1.9375,1.9449,1.9458,1.953,1.9543,1.9577,1.9595,1.9629,1.9627,1.9629,1.9705,1.9589,1.9417,1.94,1.9637,1.9638,1.9639,0,1.9146,1.9159,1.9248,1.9235,1.9252,1.9362,1.9365,1.9419,1.9477,1.9499,1.9563,1.9587,1.966,1.9679,1.9675,1.9739,1.9695,1.9748,1.9775,1.9775,1.9752,1.9595,1.9544,1.9446,1.9658,1.9656,1.9655,0,1.9255,1.9388,1.9378,1.9414,1.9504,1.9519,1.9522,1.957,1.958,1.9631,1.9635,1.9673,1.9728,1.9759,1.9823,1.9813,1.9728,1.9874,1.9877,1.9842,1.9676,1.9628,1.9611,1.9774,1.9772,1.977,1.9669,0,1.9474,1.9492,1.9474,1.9547,1.9574,1.9571,1.9666,1.9681,1.9742,1.9801,1.9809,1.9876,1.9921,1.9927,1.9985,1.9934,1.9955,2.0014,2.0086,1.9984,1.9952,1.994,2.0125,2.0128,2.013,2.0132,0,0,1.9571,1.9599,1.9695,1.9702,1.973,1.9842,1.9829,1.9869,1.9946,1.9962,2.0004,2.0064,2.0115,2.0114,2.009,2.0109,2.0107,2.0138,2.0032,2.0021,2.001,1.9975,1.9961,2.0136,2.0137,2.0138,2.0138,0,1.9669,1.9723,1.9711,1.9757,1.9829,1.9893,1.989,1.9979,2.0017,2.0026,2.0115,2.0131,2.0175,2.0217,2.0244,2.0143,2.0207,2.0151,2.0064,2.0052,2.0037,2.0025,1.9987,1.9973,2.0144,2.0143,2.0143,0,1.9791,1.9859,1.9863,1.9933,1.998,1.9995,2.0096,2.0108,2.012,2.0238,2.0243,2.0292,2.0356,2.0343,2.0341,2.0378,2.0292,2.0336,2.0324,2.0324,2.0317,2.03,2.0284,2.0489,2.049,2.0491,0,0,1.9863,1.9881,1.9983,1.9961,1.9985,2.0079,2.0097,2.0158,2.0215,2.0236,2.0299,2.035,2.0378,2.0393,2.0423,2.0396,2.0415,2.0375,2.0359,2.0345,2.0337,2.0326,2.0309,2.0494,2.0494,2.0494,0,0,1.9896,2.0015,2.0066,2.0052,2.0104,2.0202,2.0183,2.0248,2.0285,2.0295,2.0397,2.0415,2.0405,2.0448,2.0479,2.0449,2.052,2.0514,2.042,2.0401,2.0385,2.0373,2.0588,0,0,0,0,0,2.0045,2.0001,2.0046,2.0058,2.0144,2.0177,2.0189,2.0273,2.0322,2.0306,2.0369,2.0437,2.0486,2.0516,2.0525,2.0488,2.0534,2.0527,2.052,2.0394,2.0373,2.0355,0,0,0,0,0,0,2.005,2.0064,2.0048,2.0142,2.0162,2.018,2.028,2.0302,2.0325,2.0339,2.0423,2.044,2.0511,2.0517,2.0524,2.0487,2.0586,2.0531,2.0525,2.052,2.0386,2.0369,2.0354,0,0,0,0,0,2.0055,2.0066,2.0183,2.0143,2.0161,2.0263,2.0282,2.0302,2.0321,2.0418,2.0437,2.0382,2.0507,2.0519,2.0521,2.0481,2.0582,2.0584,2.0527,2.0522,2.0518,2.0378,0,0,0,0,0,0,2.0058,2.0083,2.0189,2.0197,2.0166,2.0264,2.0282,2.03,2.0401,2.0419,2.0382,2.0391,2.0505,2.0514,2.0523,2.0475,2.0578,2.058,2.0582,2.0523,2.052,2.0516,0,0,0,0,0,0,2.0078,2.009,2.0193,2.0217,2.0229,2.0264,2.028,2.0294,2.04,2.036,2.0371,2.0385,2.0491,2.051,2.0517,2.0535,2.0575,2.0578,2.0579,2.058,2.052,2.0518,0,0,0,0,0,0,2.0084,2.0095,2.0215,2.0224,2.0235,2.0336,2.0278,2.0361,2.0422,2.0353,2.043,2.0434,2.0485,2.0494,2.0513,2.0528,2.0533,2.0576,2.0577,2.0578,2.0579,0,0,0,0,0,0,0,2.009,2.0001,2.0138,2.023,2.024,2.0275,2.0278,2.028,2.0423,2.0426,2.0429,2.0432,2.0563,2.0565,2.0568,2.0521,0,0,2.0575,2.0576,0,0,0,0,0,0,0,0,1.9999,2.0001,2.0139,2.014,2.0142,2.0276,2.0278,2.0279,2.0424,2.0426,2.0429,2.0431,2.0564,2.0566,2.0567,0,0,0,0,0,0,0,0,0,0,0,0,0,0,0,2.0139,2.014,0,2.0276,2.0278,2.0279,2.0424,2.0426,2.0428,2.043,2.0564,2.0566,2.0567,0,0,0,0,0,0,0,0,0,0,0,0,0,0,0,0,0,0,0,0,0,0,0,0,0,0,0,0,0,0,0,0,0,0,0,0,0,0,0,0,0,0,0,0,0,0,0,0,0,0,0,0,0,0,0,0,0,0,0,0,0,0,0,0,0,0,0,0,0]}]]]